{"data":{"norad_id":68369,"epoch":"2026-05-25T04:17:20.112864Z","epoch_age_seconds":56643,"freshness":"FRESH","line1":"1 68369U 26061K   26145.17870501  .00088327  17119-5  24207-3 0  9994","line2":"2 68369  82.2965  37.7846 0014958 175.9491 184.1907 15.93702667  9931","mean_motion":15.93702667,"eccentricity":0.0014958,"inclination_deg":82.2965,"raan_deg":37.7846,"arg_perigee_deg":175.9491,"mean_anomaly_deg":184.1907,"bstar":0.00024207,"rev_number":993,"period_min":90.355624660569,"perigee_km":281.95463145041,"apogee_km":301.90880903388,"semimajor_km":6670.0687202421,"source":"CELESTRAK","updated_at":"2026-05-25T13:38:07.766305Z"}}